星链-11465 (STARLINK-11465)

导读

STARLINK-11465是美国SpaceX公司星链计划的成员卫星,于2024年11月24日成功发射入轨。该卫星运行在近地轨道,近地点约477公里,远地点约479公里,轨道倾角53.156度,周期约94分钟。作为星链星座的组网卫星,它承担全球高速卫星互联网接入服务,可覆盖偏远地区,支持商业、应急通信等场景,目前仍在轨正常工作。

基本信息
目录编号:
62057
目录名称:
STARLINK-11465
国际标识:
2024-217A
轨道中心:
EARTH
卫星名称:
星链-11465
卫星全名:
星链-11465 (STARLINK-11465)
卫星状态:
在轨 (已飞行563 天)
发射日期:
2024-11-24 UTC
国别 :
美国 (US)
星等 :
--
轨道信息
数据来源 国际轨道数据
星历时间: 2026-06-10T01:43:12+0800
16小时前
查看轨道信息
半长轴: 6737.694km
偏心率: 0.0000812
轨道倾角: 53.156°
近地点辐角 37.079°
升交点赤经 337.284°
平近点角 323.029°
近地点: 359.009km
远地点: 360.105km
周期: 91.733分钟
每日圈数: 15.697694
详细信息
固有亮度:
5
最大亮度:
2.5
卫星平台:
Starlink V1.0
覆盖范围:
全球
运营商:
太空探索技术公司
运营商所在国:
美国
制造商(研发单位):
太空探索技术公司
制造商所在国:
美国
使用方式:
暂无
卫星简介
Starlink 计划是 SpaceX 推出的全球卫星互联网项目,通过发射低轨道卫星,为全球尤其是偏远地区提供高速、低延迟的互联网服务。自 2019 年起,Starlink 已部署数千颗卫星,旨在缩小全球数字鸿沟,推动互联网普及。该项目还为军事、航空等行业提供通信支持,带来广泛经济效益。
2D轨道图
3D轨道图
轨道高度分析图
轨道倾角分析图
轨道综合分析图
查看轨道综合分析图